Total_Precipitation_Accumulation
0.00 0.00 0.00 0.00 0.00 0.00 0.00 0.01 0.01 0.01 0.03 0.05 0.06 0.13 0.29 0.44 0.49 0.52 0.67 0.85 1.07 1.25 1.34 1.45 1.63 1.80 1.88 1.91 2.04 2.14 2.41 2.80 3.00 2.97 2.96 2.92 2.60 2.30 1.98 1.76 1.77 1.85 1.89 2.04
0.01 0.01 0.01 0.01 0.00 0.01 0.02 0.03 0.02 0.02 0.05 0.09 0.15 0.23 0.40 0.63 0.67 0.60 0.59 0.68 0.87 1.27 1.50 1.65 1.81 1.92 1.88 2.00 2.24 2.52 2.82 3.12 3.02 3.15 3.36 3.29 3.04 2.45 2.09 1.89 1.86 1.92 1.96 2.02
0.02 0.01 0.00 0.01 0.01 0.02 0.03 0.03 0.02 0.04 0.07 0.07 0.13 0.33 0.48 0.71 0.82 0.70 0.64 0.67 0.67 0.94 1.25 1.38 1.47 1.59 1.85 2.19 2.55 2.80 2.99 3.05 2.99 3.14 3.27 2.98 2.74 2.31 2.17 2.15 2.04 1.98 2.08 2.13
0.01 0.01 0.01 0.02 0.02 0.02 0.02 0.02 0.02 0.02 0.05 0.08 0.13 0.42 0.77 1.01 0.94 0.75 0.73 0.78 0.94 1.08 1.11 1.21 1.33 1.57 1.94 2.27 2.63 2.96 2.95 2.92 2.87 2.99 3.05 2.88 2.60 2.32 2.21 2.23 2.03 1.88 1.86 1.91
0.04 0.02 0.01 0.02 0.03 0.02 0.03 0.02 0.02 0.02 0.03 0.06 0.16 0.42 0.86 1.08 0.94 0.75 0.76 0.92 1.10 1.09 1.03 1.15 1.29 1.50 1.70 2.02 2.32 2.59 2.77 2.81 2.75 2.71 2.67 2.64 2.44 2.19 2.06 2.00 1.87 1.83 1.85 1.77
0.06 0.05 0.04 0.03 0.03 0.03 0.03 0.02 0.03 0.05 0.08 0.15 0.21 0.35 0.72 0.99 0.90 0.73 0.74 0.87 1.02 1.18 1.20 1.24 1.43 1.56 1.64 1.83 2.10 2.26 2.39 2.44 2.40 2.32 2.27 2.29 2.22 2.17 2.02 1.87 1.88 1.91 1.85 1.72
0.14 0.14 0.09 0.06 0.05 0.03 0.03 0.04 0.12 0.26 0.43 0.45 0.36 0.48 0.82 0.79 0.69 0.62 0.67 0.84 1.06 1.27 1.29 1.37 1.53 1.63 1.69 1.72 1.77 1.83 1.87 1.92 1.86 1.78 1.73 1.77 1.79 1.80 1.73 1.71 1.78 1.83 1.75 1.67
0.22 0.19 0.13 0.12 0.09 0.07 0.06 0.09 0.23 0.25 0.26 0.35 0.44 0.67 0.81 0.67 0.58 0.57 0.61 0.74 0.98 1.10 1.16 1.27 1.35 1.27 1.21 1.23 1.28 1.31 1.32 1.33 1.30 1.33 1.36 1.39 1.49 1.53 1.52 1.63 1.64 1.69 1.67 1.62
0.11 0.11 0.11 0.11 0.12 0.12 0.15 0.20 0.18 0.27 0.22 0.30 0.45 0.66 0.67 0.58 0.67 0.72 0.75 0.80 0.84 0.84 0.81 0.84 0.86 0.89 0.95 0.97 0.97 0.97 1.01 1.02 0.97 0.96 1.06 1.13 1.20 1.27 1.29 1.39 1.42 1.41 1.40 1.34
0.04 0.06 0.08 0.07 0.08 0.11 0.17 0.26 0.36 0.52 0.52 0.46 0.43 0.68 0.89 0.91 0.93 0.89 1.00 1.19 1.03 0.74 0.62 0.59 0.59 0.63 0.67 0.70 0.75 0.79 0.88 0.97 0.95 0.88 0.88 0.90 0.95 0.99 1.09 1.16 1.18 1.21 1.25 1.22
0.02 0.05 0.09 0.10 0.10 0.15 0.25 0.32 0.42 0.53 0.56 0.55 0.53 0.67 0.63 0.90 0.97 0.97 0.99 1.00 0.83 0.54 0.38 0.33 0.34 0.38 0.46 0.59 0.67 0.69 0.80 0.88 0.84 0.74 0.73 0.77 0.79 0.83 0.88 0.95 0.96 1.02 1.08 1.15
0.02 0.04 0.08 0.12 0.11 0.11 0.20 0.32 0.43 0.54 0.54 0.55 0.58 0.70 0.49 0.64 0.70 0.70 0.73 0.57 0.44 0.31 0.23 0.21 0.21 0.25 0.33 0.42 0.47 0.55 0.64 0.74 0.76 0.72 0.72 0.75 0.78 0.78 0.78 0.80 0.79 0.81 0.86 0.89
0.01 0.03 0.10 0.23 0.25 0.16 0.16 0.19 0.26 0.36 0.44 0.46 0.57 0.73 0.49 0.46 0.52 0.50 0.43 0.36 0.27 0.22 0.17 0.16 0.17 0.21 0.24 0.29 0.36 0.43 0.48 0.56 0.64 0.66 0.71 0.77 0.76 0.74 0.77 0.80 0.80 0.79 0.78 0.80
0.01 0.02 0.04 0.13 0.16 0.11 0.14 0.19 0.24 0.30 0.40 0.38 0.40 0.56 0.54 0.46 0.41 0.37 0.30 0.24 0.21 0.17 0.16 0.14 0.15 0.16 0.16 0.19 0.26 0.31 0.34 0.41 0.49 0.57 0.72 0.84 0.89 0.90 0.90 0.85 0.86 0.84 0.80 0.81
0.01 0.02 0.03 0.04 0.04 0.07 0.11 0.15 0.19 0.26 0.29 0.36 0.33 0.41 0.46 0.39 0.33 0.27 0.23 0.21 0.22 0.20 0.15 0.12 0.11 0.10 0.11 0.14 0.17 0.25 0.32 0.37 0.43 0.58 0.79 0.90 0.88 0.83 0.82 0.81 0.88 0.85 0.77 0.75
0.01 0.02 0.04 0.07 0.10 0.13 0.18 0.21 0.19 0.17 0.16 0.17 0.23 0.33 0.29 0.27 0.26 0.26 0.24 0.21 0.19 0.16 0.13 0.11 0.10 0.09 0.08 0.08 0.10 0.17 0.27 0.34 0.43 0.55 0.66 0.70 0.74 0.77 0.73 0.68 0.67 0.69 0.71 0.71
0.01 0.02 0.03 0.07 0.16 0.20 0.28 0.24 0.26 0.27 0.21 0.22 0.34 0.36 0.26 0.23 0.19 0.16 0.14 0.13 0.13 0.11 0.09 0.08 0.08 0.08 0.07 0.07 0.10 0.16 0.23 0.28 0.40 0.48 0.52 0.60 0.71 0.74 0.67 0.58 0.61 0.68 0.69 0.68
0.01 0.01 0.03 0.06 0.19 0.35 0.27 0.08 0.07 0.11 0.14 0.15 0.20 0.20 0.17 0.15 0.11 0.09 0.07 0.07 0.07 0.06 0.06 0.06 0.06 0.06 0.05 0.07 0.11 0.16 0.22 0.28 0.38 0.49 0.56 0.62 0.72 0.73 0.69 0.66 0.65 0.65 0.65 0.65
0.01 0.01 0.03 0.06 0.12 0.21 0.13 0.05 0.04 0.07 0.09 0.04 0.07 0.08 0.08 0.06 0.07 0.10 0.06 0.03 0.03 0.03 0.04 0.04 0.04 0.05 0.08 0.11 0.13 0.18 0.26 0.31 0.39 0.50 0.61 0.71 0.80 0.79 0.74 0.72 0.69 0.67 0.65 0.60
0.01 0.01 0.01 0.03 0.10 0.17 0.09 0.04 0.06 0.08 0.21 0.11 0.08 0.07 0.06 0.06 0.13 0.16 0.05 0.01 0.01 0.03 0.08 0.08 0.07 0.10 0.16 0.17 0.18 0.25 0.32 0.40 0.51 0.60 0.69 0.75 0.80 0.83 0.80 0.79 0.76 0.71 0.70 0.63
0.01 0.01 0.01 0.03 0.08 0.10 0.03 0.05 0.07 0.17 0.25 0.06 0.02 0.02 0.02 0.06 0.11 0.08 0.02 0.01 0.01 0.03 0.08 0.12 0.16 0.23 0.25 0.23 0.28 0.36 0.41 0.49 0.55 0.64 0.72 0.80 0.88 0.86 0.82 0.84 0.86 0.83 0.80 0.78
0.01 0.01 0.02 0.04 0.10 0.12 0.02 0.02 0.04 0.06 0.03 0.02 0.02 0.02 0.02 0.02 0.02 0.03 0.02 0.02 0.03 0.04 0.08 0.15 0.26 0.31 0.29 0.32 0.46 0.54 0.56 0.55 0.58 0.68 0.77 0.88 0.95 0.80 0.75 0.90 0.92 0.91 0.92 0.92
0.01 0.01 0.02 0.03 0.05 0.02 0.01 0.01 0.02 0.02 0.02 0.02 0.02 0.01 0.02 0.02 0.02 0.03 0.02 0.03 0.07 0.09 0.11 0.14 0.23 0.29 0.32 0.42 0.59 0.75 0.76 0.68 0.69 0.77 0.87 0.91 0.93 0.97 0.99 0.97 0.97 0.99 0.97 0.99
0.00 0.01 0.01 0.03 0.02 0.01 0.01 0.01 0.01 0.01 0.01 0.01 0.01 0.01 0.01 0.02 0.02 0.02 0.02 0.04 0.07 0.11 0.12 0.14 0.20 0.29 0.39 0.48 0.64 0.78 0.81 0.80 0.83 0.88 0.93 0.97 1.00 1.02 1.07 1.13 1.11 1.07 1.02 1.04
0.00 0.00 0.02 0.05 0.03 0.02 0.01 0.01 0.01 0.00 0.01 0.01 0.01 0.01 0.01 0.02 0.03 0.03 0.04 0.05 0.06 0.09 0.10 0.14 0.23 0.35 0.42 0.49 0.60 0.69 0.74 0.85 0.95 0.98 1.01 1.04 1.07 1.10 1.13 1.15 1.10 1.03 0.99 0.89
0.01 0.01 0.03 0.05 0.03 0.03 0.03 0.01 0.00 0.00 0.01 0.01 0.01 0.01 0.02 0.02 0.03 0.04 0.05 0.06 0.07 0.09 0.12 0.17 0.24 0.32 0.38 0.46 0.56 0.65 0.77 0.91 1.06 1.09 1.03 1.02 1.01 1.05 1.10 1.10 0.95 0.74 0.66 0.60